FENGYUN 1C DEB, 30038

Orbit data source: Space-Track

FENGYUN 1C DEB, 30038 is space debris in SSO originally from a launch on Mon, 10 May 1999 UTC launched from the Taiyaun Space Center, China (TSC). Fengyun 1C debris stems from the Chinese weather satellite Fengyun-1C, which was intentionally destroyed by a Chinese anti-satellite missile in 2007. This event dramatically increased the amount of space debris, with thousands of trackable fragments posing hazards to satellites and human spaceflight. The Fengyun 1C debris cloud has become a focal point in discussions about space sustainability and the need for international regulations to prevent the creation of new debris.

Loading next visibility...
Identifier
30038, 1999-025NP
Orbit
SSO
Country
Flag of CNCN / PRC
Related business
Manufacturer
Unknown
Mission
Spacecraft
Bus & Motor
Unknown
Mass
Unknown
Launch date (UTC)
1999-05-10 (27 years ago)
Launch vehicle
Unknown
Launch site
Taiyaun Space Center, China (TSC)
Object type
Payload
Rocket body
Debris
Shape & HBR
Unknown shape, 0.1 m
Radar Cross Section
Small (<0.1 m²)

Expand to show TLE details & history
Last TLE update: 14 hours ago

TLE from 14 hours ago
0 FENGYUN 1C DEB
1 30038U 99025NP  26105.96829022  .00000658  00000-0  15366-3 0  9994
2 30038  98.3816  95.9273 0256931  89.3333 331.6646 14.39694618  6793
Epoch: 2026-04-15T23:14Z
TLE epoch observation values (Epoch: 2026-04-15T23:14:20.275Z)
Latitude
58.63574°
Longitude
-110.68977°
Altitude
609.05 km
Speed
7.645 km/s
True Right ascension
05h 28m 04s
True Declination
58° 28' 46"
Sunlit
Object was in daylight at epoch
Visualization orbit readout
Latitude
Unknown
Longitude
Unknown
Altitude
Unknown
Speed
Unknown
Apparent Right ascension
Unknown
Apparent Declination
Unknown
Sunlit
N/A
Visualization observer readout
Local Sidereal Time
19:52:14
Azimuth
Unknown
Elevation
Unknown
Doppler factor
Unknown
Orbital elements
Apogee altitude
939.936 km
Perigee altitude
573.307 km
Semi-major axis
7,134.759 km
Eccentricity
0.02569
Inclination
98.3816°
RAAN
95.9273°
Arg. of periapsis
89.3333°
True anomaly
330.22673°
Mean anomaly
331.6646°
Eccentric anomaly
330.94978°
Mean motion
3.60142 °/min
Orbital period
99.96 mins
BSTAR
0.00015366
Loading maneuver chart data...
Computing Atmospheric mass density...
Loading historical data...
Loading historical data...
Loading historical data...
Loading historical data...
Loading historical data...
Loading historical data...
Loading historical data...

Documentation

Showing up to 5 results
|